Regional Weather Roundup
Issued by NWS Sterling, VA

Home | Current Version | Previous Version | Text Only | Print | Product List | Glossary On
Versions: 1 2 3 4 5 6 7 8 9 10 11 12 13 14 15 16 17 18 19 20 21 22 23 24 25 26 27 28 29 30 31 32 33 34 35 36 37 38 39 40 41 42 43 44 45 46 47 48 49 50
000
ASUS41 KLWX 192210
RWRLWX

REGIONAL WEATHER ROUNDUP
NATIONAL WEATHER SERVICE BALTIMORE MD/WASHINGTON DC
500 PM EST FRI DEC 19 2014

Note: "FAIR" indicates few or no clouds below 12,000 feet
with no significant weather and/or obstructions to visibility.
 TC=TEMPERATURE CELSIUS

 * =Non NWS site. Station does not report precipitation (e.g. rain,
    snow, etc.), thunder, or fog.

DCZ001-MDZ009-015-VAZ040>042-051-053>054-192300-
WASHINGTON METRO

CITY           SKY/WX    TMP DP  RH WIND       PRES   REMARKS
WASHINGTON NAT PTCLDY    41  22  46 NW12      30.19R
DULLES         PTCLDY    35  22  58 NW12      30.18R WCI  27
ANDREWS AFB    CLEAR     37  23  55 NW12      30.16R
FT BELVOIR     CLEAR     37  23  56 NW8       30.19R
QUANTICO       PTCLDY    38  22  52 NW10      30.21R
COLLEGE PARK*  CLEAR     37  23  56 NW5       30.17R
LEESBURG*      CLEAR     36  27  69 NW12      30.19R WCI  27
MANASSAS*      MOCLDY    37  25  60 NW7       30.19R
GAITHERSBURG*  CLEAR     36  21  55 NW12G17   30.20R WCI  27

$$

MDZ006>007-011-014-192300-
BALTIMORE METRO

CITY           SKY/WX    TMP DP  RH WIND       PRES   REMARKS
BWI AIRPORT    PTCLDY    37  23  56 W9        30.15R
MD SCIENCE CTR   N/A     40  22  48 MISG      30.15R
ANNAPOLIS      CLEAR     39  24  55 W6        30.16R
FORT MEADE*    CLEAR     36  23  60 W7        30.19R

$$

MDZ012-015-019>023-192300-
MARYLAND EASTERN SHORE

CITY           SKY/WX    TMP DP  RH WIND       PRES   REMARKS
OCEAN CITY     CLOUDY    37  25  61 NW7       30.15R
SALISBURY      CLOUDY    40  24  53 NW12      30.17R
BAY BRIDGE AP*   N/A     37  25  60 NW10      30.16R
CAMBRIDGE*     MOCLDY    37  25  60 NW6       30.15S
EASTON*        PTCLDY    37  27  65 NW6       30.19R

$$

MDZ017>025-192300-
SOUTHERN MARYLAND

CITY           SKY/WX    TMP DP  RH WIND       PRES   REMARKS
PATUXENT RIVER MOCLDY    38  23  55 NW12      30.17R
ST INIGOES     CLOUDY    39  23  52 W8        30.17S
LEONARDTOWN*   CLOUDY    37  23  56 W3        30.18S

$$

MDZ003>005-192300-
NORTH CENTRAL MARYLAND

CITY           SKY/WX    TMP DP  RH WIND       PRES   REMARKS
FREDERICK*     CLEAR     37  21  52 NW9       30.21
HAGERSTOWN APT CLEAR     33  22  63 W8        30.17R WCI  26
WESTMINSTER*   CLEAR     36  23  60 W7        30.14R

$$

MDZ501>502-192300-
WESTERN MARYLAND

CITY           SKY/WX    TMP DP  RH WIND       PRES   REMARKS
OAKLAND*       CLOUDY    21 N/A N/A W5        30.10S
CUMBERLAND*    CLOUDY    34  23  64 NW6       30.25S

$$

VAZ025>031-192300-
SHENANDOAH VALLEY

CITY           SKY/WX    TMP DP  RH WIND       PRES   REMARKS
WINCHESTER*    CLEAR     34  19  55 NW14      30.18S WCI  24
FRONT ROYAL*   FAIR      32  23  69 NW5       30.18R
LURAY*         FAIR      36  27  69 NW6       30.17F
NEW MARKET*    FAIR      33  22  66 N7        30.16F
STAUNTON*      CLEAR     34  22  62 NE7       30.16R
WAYNESBORO*    FAIR      34  23  63 N6        30.12S

$$

WVZ021-048>050-054>055-192300-
EASTERN WEST VIRGINIA PANHANDLE

CITY           SKY/WX    TMP DP  RH WIND       PRES   REMARKS
MARTINSBURG    CLEAR     35  19  52 NW12      30.19R WCI  27
PETERSBURG*    CLOUDY    33  22  65 W6        30.21S

$$

VAZ036>039-050-192300-
CENTRAL FOOTHILLS

CITY           SKY/WX    TMP DP  RH WIND       PRES   REMARKS
CHARLOTTESVILL CLEAR     39  22  50 N7        30.14R
CULPEPER*      CLEAR     37  25  60 N7        30.18S
ORANGE*        CLEAR     36  27  69 N6        30.18R
GORDONSVILLE*  FAIR      37  24  60 NE7       30.15R
WARRENTON*     FAIR      37  29  73 NW8       30.18S

$$

VAZ055>057-192300-
NORTH AND CENTRAL PIEDMONT

CITY           SKY/WX    TMP DP  RH WIND       PRES   REMARKS
FREDERICKSBRG* CLEAR     39  26  57 N8        30.18R
STAFFORD*      CLEAR     36  22  57 N6        30.23R

$$

NCZ024-NYZ072-PAZ021-071-VAZ022-071-192300-
OTHER REGIONAL OBSERVATIONS

CITY           SKY/WX    TMP DP  RH WIND       PRES   REMARKS
NEW YORK CITY  PTCLDY    33  19  56 VRB7      30.11R
PHILADELPHIA   PTCLDY    40  21  46 NW10G21   30.12R
PITTSBURGH     CLOUDY    31  23  72 NW6       30.22R
ROANOKE        MOCLDY    40  24  53 NW6       30.15R
RICHMOND       MOCLDY    41  24  51 N5        30.16R
RALEIGH        CLOUDY    48  26  42 CALM      30.15R

$$

ANZ530>537-192300-
MARINE OBSERVATIONS

STATION/POSITION TIME  TEMP    WIND        PRES
                       AIR SEA DIR/SP/G
                 (UTC) (F)     (DEG/KT/KT) (MB)
THOMAS PT LIGHT  2200   39 41  310/  9/ 11 1022.5R
BALT KEY BRIDGE  2200   40     280/ 11/ 12 1020.8R
COVE POINT       2200   38     320/  6/  8 1021.5S
LEWISETTA        2200   38 42  330/  7/ 10 1021.4R
SOLOMONS ISLAND  2200      43                N/A

$$



USA.gov is the U.S. government's official web portal to all federal, state and local government web resources and services.